Regional Weather Roundup
Issued by NWS

Home | Current Version | Previous Version | Text Only | Print | Product List | Glossary Off
Versions: 1 2 3 4 5 6 7 8 9 10 11 12 13 14 15 16 17 18 19 20 21 22 23 24 25 26 27 28 29 30 31 32 33 34 35 36 37 38 39 40 41 42 43 44 45 46 47 48 49 50

000
ASUS43 KLOT 192008
RWRIL

ILLINOIS REGIONAL WEATHER ROUNDUP
NATIONAL WEATHER SERVICE CHICAGO/ROMEOVILLE IL
200 PM CST MON FEB 19 2018

NOTE: "FAIR" INDICATES FEW OR NO CLOUDS BELOW 12,000 FEET WITH NO
SIGNIFICANT WEATHER AND/OR OBSTRUCTIONS TO VISIBILITY.

* THESE STATIONS ARE NOT UNDER NWS QUALITY CONTROL. THEY ALSO MAY NOT
  REPORT WEATHER SUCH AS PRECIPITATION OR FOG.

ILZ001-002-007-009-015-016-024-192100-
NORTHWEST ILLINOIS

CITY           SKY/WX    TMP DP  RH WIND       PRES   REMARKS
MOLINE         CLOUDY    63  57  81 S16G25    29.67R
STERLING*        N/A    N/A N/A N/A VRB3      29.71
SAVANNA*       FOG       45  45 100 NE3       29.70S VSB<1/4
$$

ILZ003-004-008-010-011-017-018-192100-
NORTH CENTRAL ILLINOIS

CITY           SKY/WX    TMP DP  RH WIND       PRES   REMARKS
ROCKFORD       FOG       41  41 100 SE7       29.73F VSB 1/4
FREEPORT*      FOG       38  38 100 NE5       29.73R VSB<1/4 WCI  34
ROCHELLE*      FOG       40  40 100 S9        29.72S VSB<1/4
DE KALB*       LGT RAIN  41  41  99 S12       29.74S VSB<1/4
PERU*          CLOUDY    57  53  85 SW23      29.75R
$$

ILZ005-006-012>014-019>023-192100-
NORTHEAST ILLINOIS

CITY           SKY/WX    TMP DP  RH WIND       PRES   REMARKS
CHICAGO-OHARE  CLOUDY    53  51  93 SW16G24   29.74S FOG
CHICAGO-MIDWAY CLOUDY    55  54  96 SW14G26   29.76S
AURORA         FOG       49  49 100 S9        29.75S VSB<1/4
LANSING*       CLOUDY    50  50 100 S17       29.79F
JOLIET*        CLOUDY    55  55 100 SW9G17    29.77S
WAUKEGAN       FOG       39  39 100 E3        29.75F VSB 1
DUPAGE AIRPORT FOG       49  49 100 S13       29.74F VSB<1/4
KANKAKEE*      CLOUDY    57  57  98 SW17G25   29.82S
WHEELING       FOG       48  48 100 S6        29.76F VSB 1/2
MORRIS*        CLOUDY    52  52  99 SW13      29.77R
ROMEOVILLE*    CLOUDY    51  51 100 SW14      29.77R FOG
NORTHERLY ISL    N/A     54  52  93 S16         N/A
$$

LMZ740>746-192100-
SOUTHERN LAKE MICHIGAN

STATION/POSITION SKY/WX   TEMP    WIND        PRES    VSBY  WAVE
                          AIR SEA DIR/SP/G                  HT/PER
                          (F)     (DEG/KT/KT) (MB)    (MI)  (FT/S)
HARRISON CRIB              54     210/ 25/ 28   N/A
BURNHAM HARBOR             55     180/ 14/ 19   N/A
CALUMET HARBOR             54     190/ 11/ 16 1007.6F
BURNS HARBOR               55     210/ 21/ 29 1009.5F
MICHIGAN CITY              56     190/ 24/ 31   N/A
$$

ILZ025>027-034>036-040-047-049-050-058-095>099-192100-
WEST-CENTRAL ILLINOIS

CITY           SKY/WX    TMP DP  RH WIND       PRES   REMARKS
QUINCY         LGT RAIN  61  57  87 S16       29.76R
GALESBURG*     PTSUNNY   62  58  86 S18G26    29.73R
MACOMB*        CLOUDY    63  57  81 S20G28    29.76R
JACKSONVILLE*  CLOUDY    60  56  85 S16G23    29.81S
PITTSFIELD*    RAIN      62  58  87 S15G23    29.80F
$$

ILZ028>032-037-038-041>044-048-051>054-059>061-192100-
CENTRAL ILLINOIS

CITY           SKY/WX    TMP DP  RH WIND       PRES   REMARKS
PONTIAC        CLOUDY    61  60  99 S23G30    29.80R
BLOOMINGTON    CLOUDY    59  56  89 SW26G37   29.82R
DECATUR        LGT RAIN  60  32  34 SW23G29   29.88R
PEORIA         CLOUDY    61  57  87 S21       29.77S
LACON*         CLOUDY    60  56  89 SW23G29   29.75R
LINCOLN*       CLOUDY    61  59  94 S17G23    29.83R
SPRINGFIELD    CLOUDY    62  58  86 S24G32    29.83S
TAYLORVILLE    RAIN      58  57  96 S21       29.88R
$$

ILZ033-039-045-046-055>057-062-063-192100-
EAST-CENTRAL ILLINOIS

CITY           SKY/WX    TMP DP  RH WIND       PRES   REMARKS
CHAMPAIGN      FAIR      60  57  89 S25G36    29.86S
DANVILLE*      LGT RAIN  59  57  95 S23G32    29.85F
RANTOUL*       CLOUDY    61  59  95 SW21G28   29.85S
MATTOON        LGT RAIN  59  57  93 S18G26    29.89F
PARIS*         LGT RAIN  59  58  95 S24G32    29.92F
$$

ILZ079-100>102-192100-
SOUTHWEST ILLINOIS

CITY           SKY/WX    TMP DP  RH WIND       PRES   REMARKS
ALTON          TSTM      59  59 100 S17G25    29.98R
BELLEVILLE     DRIZZLE   64  59  82 SW9       29.88R
CAHOKIA*         N/A    N/A N/A N/A MISG      29.88R
SPARTA*        CLOUDY    67  60  77 S17G24    29.92S THUNDER
$$

ILZ064>066-069>071-074>076-080>082-084>086-088>090-092>094-192100-
SOUTH-CENTRAL ILLINOIS

CITY           SKY/WX    TMP DP  RH WIND       PRES   REMARKS
CARBONDALE     PTSUNNY   69  58  67 S25G48    29.93F
CAIRO*         CLOUDY    69  60  74 SW12G22   30.00F
EFFINGHAM*     CLOUDY    61  61  99 SE7       29.94F
MARION         PTSUNNY   70  57  64 S33G47    29.94F
MT. VERNON     CLOUDY    67  58  72 S20G25    29.94F
CENTRALIA*     CLOUDY    66  59  78 S24       29.91F
SALEM*         CLOUDY    66  57  73 S22       29.91F
METROPOLIS*    CLOUDY    72  58  61 SW22G28   30.01S
$$

ILZ067-068-072-073-078-083-087-091-192100-
SOUTHEAST ILLINOIS

CITY           SKY/WX    TMP DP  RH WIND       PRES   REMARKS
LAWRENCEVILLE  PTSUNNY   69  59  70 S26G32    29.97F
FLORA*         CLOUDY    67  58  72 S25G31    29.95S
FAIRFIELD*     CLOUDY    67  58  73 S16G22    29.95F
HARRISBURG*    CLOUDY    69  60  73 SW20G26   29.99S
ROBINSON*      CLOUDY    66  58  77 SW17G26   29.96F
CARMI*         PTSUNNY   71  60  68 S23       29.98F
$$

ABBREVIATIONS USED IN REMARKS
   TC - TEMPERATURE IN CELSIUS
  WCI - WIND CHILL INDEX
   HX - HEAT INDEX
  VSB - VISIBILITY
$$





USA.gov is the U.S. government's official web portal to all federal, state and local government web resources and services.